[sarex] 2 Line ISS Keps 10-31

Dave Larsen PhD doc at volcano.net
Mon Oct 30 18:08:31 PST 2006


ISS
1 25544U 98067A   06304.04280258  .00019307  00000-0  11714-3 0  9630
2 25544 051.6339 207.4189 0012422 155.0964 286.5786 15.77468291454590


More information about the SAREX mailing list